When you browse on this site, cookies collect data to enhance your experience and personalize the content and advertising you see.
Visit our Privacy Policy to learn more. By continuing to use the site, you agree to this use of cookies and data.
  • In Hungary
  • List of Countries
  • For 7 days
  • Water Temperature
  • Satellite Maps
  • Weather Map
  • News
  • Weather Widgets
  • user-avatar
    Login

    Hourly Weather Revfulop

    Today, 18 February, Monday

    Time Temperature Precipitation Wind Pressure Humidity
    00:00 +7°C° 0 mm 1 mps 757 mmHg 66%
    01:00 +5°C° 0 mm 0 mps 757 mmHg 68%
    02:00 +5°C° 0 mm 0 mps 757 mmHg 69%
    03:00 +5°C° 0 mm 0 mps 756 mmHg 71%
    04:00 +4°C° 0 mm 0 mps 756 mmHg 72%
    05:00 +4°C° 0 mm 0 mps 756 mmHg 74%
    06:00 +4°C° 0 mm 0 mps 756 mmHg 75%
    07:00 +4°C° 0 mm 0 mps 756 mmHg 77%
    08:00 +6°C° 0 mm 1 mps 756 mmHg 70%
    09:00 +8°C° 0 mm 1 mps 756 mmHg 63%
    10:00 +10°C° 0 mm 1 mps 756 mmHg 56%
    11:00 +11°C° 0 mm 1 mps 756 mmHg 51%
    12:00 +12°C° 0 mm 2 mps 756 mmHg 47%
    13:00 +13°C° 0 mm 2 mps 755 mmHg 42%
    14:00 +14°C° 0 mm 2 mps 755 mmHg 42%
    15:00 +14°C° 0 mm 2 mps 755 mmHg 43%
    16:00 +14°C° 0 mm 1 mps 754 mmHg 43%
    17:00 +12°C° 0 mm 1 mps 754 mmHg 47%
    18:00 +11°C° 0 mm 1 mps 754 mmHg 50%
    19:00 +9°C° 0 mm 1 mps 754 mmHg 54%
    20:00 +8°C° 0 mm 2 mps 754 mmHg 57%
    21:00 +7°C° 0 mm 2 mps 754 mmHg 60%
    22:00 +7°C° 0 mm 2 mps 754 mmHg 63%
    23:00 +6°C° 0 mm 2 mps 754 mmHg 66%

    Tomorrow, 19 February, Tuesday

    Time Temperature Precipitation Wind Pressure Humidity
    00:00 +6°C° 0 mm 2 mps 753 mmHg 69%
    01:00 +6°C° 0 mm 2 mps 753 mmHg 71%
    02:00 +5°C° 0 mm 2 mps 753 mmHg 73%
    03:00 +5°C° 0 mm 2 mps 753 mmHg 75%
    04:00 +4°C° 0 mm 2 mps 753 mmHg 76%
    05:00 +4°C° 0 mm 2 mps 753 mmHg 77%
    06:00 +5°C° 0 mm 1 mps 753 mmHg 79%
    07:00 +4°C° 0 mm 1 mps 753 mmHg 80%
    08:00 +6°C° 0 mm 1 mps 753 mmHg 73%
    09:00 +7°C° 0 mm 2 mps 753 mmHg 67%
    10:00 +8°C° 0 mm 2 mps 753 mmHg 61%
    11:00 +9°C° 0 mm 2 mps 752 mmHg 56%
    12:00 +12°C° 0 mm 2 mps 752 mmHg 52%
    13:00 +13°C° 0 mm 2 mps 752 mmHg 48%
    14:00 +13°C° 0 mm 2 mps 752 mmHg 48%
    15:00 +13°C° 0 mm 2 mps 751 mmHg 48%
    16:00 +13°C° 0 mm 2 mps 751 mmHg 49%
    17:00 +12°C° 0 mm 1 mps 751 mmHg 54%
    18:00 +10°C° 0 mm 1 mps 752 mmHg 59%
    19:00 +9°C° 0 mm 1 mps 752 mmHg 64%
    20:00 +9°C° 0 mm 1 mps 752 mmHg 65%
    21:00 +8°C° 0 mm 1 mps 752 mmHg 65%
    22:00 +8°C° 0 mm 1 mps 753 mmHg 66%
    23:00 +8°C° 0 mm 1 mps 753 mmHg 67%

    Day after tomorrow, 20 February, Wednesday

    Time Temperature Precipitation Wind Pressure Humidity
    00:00 +7°C° 0 mm 1 mps 753 mmHg 67%
    01:00 +7°C° 0 mm 1 mps 753 mmHg 67%
    02:00 +7°C° 0 mm 1 mps 753 mmHg 69%
    03:00 +6°C° 0 mm 2 mps 753 mmHg 72%
    04:00 +5°C° 0 mm 2 mps 753 mmHg 74%
    05:00 +4°C° 0 mm 3 mps 754 mmHg 75%
    06:00 +4°C° 0 mm 3 mps 754 mmHg 77%
    07:00 +4°C° 0 mm 4 mps 755 mmHg 79%
    08:00 +5°C° 0 mm 4 mps 755 mmHg 69%
    09:00 +7°C° 0 mm 4 mps 756 mmHg 60%
    10:00 +9°C° 0 mm 5 mps 756 mmHg 51%
    11:00 +9°C° 0 mm 5 mps 756 mmHg 48%
    12:00 +11°C° 0 mm 4 mps 756 mmHg 45%
    13:00 +12°C° 0 mm 4 mps 756 mmHg 42%
    14:00 +12°C° 0 mm 4 mps 756 mmHg 43%
    15:00 +12°C° 0 mm 3 mps 756 mmHg 44%
    16:00 +12°C° 0 mm 2 mps 756 mmHg 45%
    17:00 +10°C° 0 mm 2 mps 756 mmHg 49%
    18:00 +10°C° 0 mm 1 mps 756 mmHg 54%
    19:00 +9°C° 0 mm 1 mps 756 mmHg 59%
    20:00 +9°C° 0 mm 1 mps 757 mmHg 61%
    21:00 +9°C° 0 mm 1 mps 757 mmHg 63%
    22:00 +8°C° 0 mm 1 mps 757 mmHg 66%
    23:00 +8°C° 0 mm 1 mps 758 mmHg 68%

    21 February, Thursday

    Time Temperature Precipitation Wind Pressure Humidity
    00:00 +7°C° 0 mm 1 mps 758 mmHg 70%
    01:00 +7°C° 0 mm 1 mps 758 mmHg 73%
    02:00 +7°C° 0 mm 1 mps 758 mmHg 74%
    03:00 +6°C° 0 mm 1 mps 758 mmHg 76%
    04:00 +6°C° 0 mm 1 mps 758 mmHg 77%
    05:00 +5°C° 0 mm 0 mps 758 mmHg 78%
    06:00 +5°C° 0 mm 0 mps 758 mmHg 78%
    07:00 +4°C° 0 mm 0 mps 758 mmHg 79%
    08:00 +7°C° 0 mm 1 mps 758 mmHg 73%
    09:00 +9°C° 0 mm 1 mps 758 mmHg 67%
    10:00 +10°C° 0 mm 1 mps 759 mmHg 61%
    11:00 +10°C° 0 mm 2 mps 758 mmHg 59%
    12:00 +12°C° 0 mm 2 mps 758 mmHg 56%
    13:00 +12°C° 0 mm 3 mps 758 mmHg 53%
    14:00 +13°C° 0 mm 2 mps 757 mmHg 54%
    15:00 +13°C° 0 mm 2 mps 757 mmHg 56%
    16:00 +13°C° 0 mm 2 mps 757 mmHg 57%
    17:00 +12°C° 0.1 mm 2 mps 757 mmHg 62%
    18:00 +10°C° 0.1 mm 2 mps 757 mmHg 67%
    19:00 +9°C° 0.1 mm 2 mps 757 mmHg 72%
    20:00 +9°C° 0.1 mm 2 mps 757 mmHg 74%
    21:00 +9°C° 0.1 mm 2 mps 758 mmHg 75%
    22:00 +8°C° 0.1 mm 2 mps 758 mmHg 77%
    23:00 +8°C° 0 mm 3 mps 758 mmHg 76%

    22 February, Friday

    Time Temperature Precipitation Wind Pressure Humidity
    00:00 +8°C° 0 mm 3 mps 758 mmHg 76%
    01:00 +7°C° 0 mm 4 mps 758 mmHg 75%
    02:00 +7°C° 0 mm 5 mps 759 mmHg 77%
    03:00 +6°C° 0 mm 5 mps 759 mmHg 79%
    04:00 +6°C° 0 mm 5 mps 759 mmHg 81%
    05:00 +5°C° 0 mm 6 mps 759 mmHg 82%
    06:00 +5°C° 0 mm 6 mps 760 mmHg 84%
    07:00 +5°C° 0 mm 6 mps 760 mmHg 85%
    08:00 +6°C° 0 mm 7 mps 760 mmHg 77%
    09:00 +8°C° 0 mm 7 mps 761 mmHg 69%
    10:00 +9°C° 0 mm 8 mps 761 mmHg 61%
    11:00 +10°C° 0 mm 8 mps 761 mmHg 58%
    12:00 +10°C° 0 mm 8 mps 761 mmHg 55%
    13:00 +11°C° 0 mm 8 mps 761 mmHg 52%
    14:00 +11°C° 0 mm 8 mps 762 mmHg 53%
    15:00 +11°C° 0 mm 8 mps 762 mmHg 54%
    16:00 +10°C° 0 mm 8 mps 762 mmHg 55%
    17:00 +9°C° 0 mm 7 mps 763 mmHg 58%
    18:00 +8°C° 0 mm 6 mps 763 mmHg 61%
    19:00 +7°C° 0 mm 6 mps 764 mmHg 64%
    20:00 +7°C° 0 mm 5 mps 765 mmHg 67%
    21:00 +6°C° 0 mm 5 mps 765 mmHg 70%
    22:00 +5°C° 0 mm 4 mps 766 mmHg 72%
    23:00 +5°C° 0 mm 4 mps 766 mmHg 69%

    23 February, Saturday

    Time Temperature Precipitation Wind Pressure Humidity
    00:00 +4°C° 0 mm 3 mps 767 mmHg 66%
    01:00 +4°C° 0 mm 3 mps 768 mmHg 63%
    02:00 +3°C° 0 mm 3 mps 768 mmHg 59%
    03:00 +2°C° 0 mm 3 mps 768 mmHg 54%
    04:00 +1°C° 0 mm 3 mps 768 mmHg 50%
    05:00 +2°C° 0 mm 2 mps 768 mmHg 49%
    06:00 +1°C° 0 mm 2 mps 769 mmHg 48%
    07:00 +1°C° 0 mm 2 mps 769 mmHg 47%
    08:00 +2°C° 0 mm 2 mps 769 mmHg 41%
    09:00 +3°C° 0 mm 2 mps 770 mmHg 35%
    10:00 +4°C° 0 mm 2 mps 770 mmHg 29%
    11:00 +5°C° 0 mm 2 mps 770 mmHg 27%
    12:00 +8°C° 0 mm 1 mps 769 mmHg 25%
    13:00 +9°C° 0 mm 1 mps 769 mmHg 23%
    14:00 +9°C° 0 mm 1 mps 769 mmHg 24%
    15:00 +9°C° 0 mm 1 mps 768 mmHg 24%
    16:00 +9°C° 0 mm 1 mps 768 mmHg 25%
    17:00 +8°C° 0 mm 1 mps 767 mmHg 28%
    18:00 +7°C° 0 mm 1 mps 767 mmHg 31%
    19:00 +6°C° 0 mm 1 mps 767 mmHg 34%
    20:00 +6°C° 0 mm 1 mps 767 mmHg 36%
    21:00 +6°C° 0 mm 1 mps 767 mmHg 38%
    22:00 +4°C° 0 mm 2 mps 766 mmHg 40%
    23:00 +4°C° 0 mm 2 mps 766 mmHg 43%
    Show more